Regional Weather Roundup
Issued by NWS

Home | Current Version | Previous Version | Text Only | Print | Product List | Glossary Off
Versions: 1 2 3 4 5 6 7 8 9 10 11 12 13 14 15 16 17 18 19 20 21 22 23 24 25 26 27 28 29 30 31 32 33 34 35 36 37 38 39 40 41 42 43 44 45 46 47 48 49 50

000
ASUS43 KBIS 230110
RWRND

NORTH DAKOTA REGIONAL WEATHER ROUNDUP
NATIONAL WEATHER SERVICE BISMARCK ND
800 PM CDT TUE APR 22 2014

NOTE: "FAIR" INDICATES FEW OR NO CLOUDS BELOW 12,000 FEET WITH NO
SIGNIFICANT WEATHER AND/OR OBSTRUCTIONS TO VISIBILITY.


NDZ001>003-009>011-017-230200-
NORTHWEST NORTH DAKOTA

CITY           SKY/WX    TMP DP  RH WIND       PRES   REMARKS
WILLISTON      PTCLDY    67  30  25 SE18G28   29.65F
MINOT          CLOUDY    61  31  32 E17G25    29.78F
MINOT AFB      CLOUDY    60  36  40 SE20G26   29.78F
$$

NDZ018>021-031>035-040>046-230200-
SOUTHWEST NORTH DAKOTA

CITY           SKY/WX    TMP DP  RH WIND       PRES   REMARKS
BISMARCK       CLEAR     62  31  31 SE22G29   29.79F
DICKINSON      MOCLDY    62  31  31 SE24G30   29.66F
GARRISON         N/A     62  33  33 SE18      29.76F
HETTINGER ARPT CLOUDY    62  32  32 E22G31    29.67F
$$

NDZ004>008-012>016-024-026-027-054-230200-
NORTHEAST NORTH DAKOTA

CITY           SKY/WX    TMP DP  RH WIND       PRES   REMARKS
GRAND FORKS    PTCLDY    58  31  35 E14       29.97F
GRND FRKS AFB  CLEAR     56  31  38 SE8       29.97F
DEVILS LAKE    PTCLDY    52  30  43 SE13      29.92S
$$

NDZ022-023-025-028>030-036>039-047>053-230200-
SOUTHEAST NORTH DAKOTA

CITY           SKY/WX    TMP DP  RH WIND       PRES   REMARKS
FARGO          PTCLDY    58  31  35 E10       29.97F
JAMESTOWN      PTCLDY    58  34  40 SE15      29.90S
$$




USA.gov is the U.S. government's official web portal to all federal, state and local government web resources and services.